This is the latest recevied weather packets stored in our database for station/object DO6MJ-1. If no packets are shown the sender has not sent any weather packets the latest 10 day(s).
| Time | Temp. | Humidity | Pressure | Rain* | Wind** | Luminosity | Snow |
|---|---|---|---|---|---|---|---|
| 1777597296 | 6.11° C | 73% | 1022.4 hPa | 0 mm | - | - | - |
| 1777596096 | 6.67° C | 72% | 1022.3 hPa | 0 mm | - | - | - |
| 1777594895 | 6.67° C | 71% | 1022.1 hPa | 0 mm | - | - | - |
| 1777593695 | 6.67° C | 70% | 1022.2 hPa | 0 mm | - | - | - |
| 1777592495 | 7.78° C | 69% | 1022.1 hPa | 0 mm | - | - | - |
| 1777591295 | 7.78° C | 68% | 1022.2 hPa | 0 mm | - | - | - |
| 1777590094 | 8.33° C | 66% | 1022.2 hPa | 0 mm | - | - | - |
| 1777588894 | 8.33° C | 65% | 1022.2 hPa | 0 mm | - | - | - |
| 1777587694 | 8.89° C | 63% | 1022.3 hPa | 0 mm | - | - | - |
| 1777586493 | 9.44° C | 62% | 1022.6 hPa | 0 mm | - | - | - |
| 1777585293 | 10° C | 60% | 1022.5 hPa | 0 mm | - | - | - |
| 1777584093 | 10.56° C | 58% | 1022.3 hPa | 0 mm | - | - | - |
| 1777582893 | 11.11° C | 56% | 1022.5 hPa | 0 mm | - | - | - |
| 1777581692 | 11.67° C | 54% | 1022.3 hPa | 0 mm | - | - | - |
| 1777580492 | 12.22° C | 52% | 1022.3 hPa | 0 mm | - | - | - |
| 1777579292 | 12.78° C | 51% | 1022.1 hPa | 0 mm | - | - | - |
| 1777578092 | 13.33° C | 49% | 1022.2 hPa | 0 mm | - | - | - |
| 1777576891 | 13.89° C | 47% | 1022.1 hPa | 0 mm | - | - | - |
| 1777575691 | 15° C | 43% | 1021.9 hPa | 0 mm | - | - | - |
| 1777574491 | 16.67° C | 41% | 1021.8 hPa | 0 mm | - | - | - |
| 1777573290 | 17.78° C | 39% | 1021.7 hPa | 0 mm | - | - | - |
| 1777572090 | 18.33° C | 38% | 1021.6 hPa | 0 mm | - | - | - |
| 1777570890 | 19.44° C | 37% | 1021.7 hPa | 0 mm | - | - | - |
| 1777569689 | 18.89° C | 37% | 1021.7 hPa | 0 mm | - | - | - |
| 1777568489 | 19.44° C | 36% | 1021.7 hPa | 0 mm | - | - | - |
* Rain latest hour (hover to see other rain measurements)
** Current wind speed in m/s (hover to see current wind gust speed)